Flag for U.S.A. Weather past 2 weeks in Pullman, Washington, U.S.A.

Now
57 °F

Clear.


Feels Like: 57 °F
Forecast: 54 / 81 °F
Wind: No wind

Location: Pullman / Moscow Regional Airport

Current Time: May 28, 2015 at 11:32:43 PM

Latest Report: May 28, 2015 at 10:53 PM


Visibility: 10 mi

Pressure: 30.08 "Hg

Humidity: 81%

Dew point: 51 °F

Location of PullmanLocation

Historic Weather in Pullman — Graph

°F

Pullman temperature yesterday

Maximum temperature yesterday: 69 °F (at 2:53 PM)
Minimum temperature yesterday: 41 °F (at 4:53 AM)
Average temperature yesterday: 57 °F

Past Weeks' High & Low Weather Summary

 TemperatureHumidityPressure
High76 °F (May 28, 4:53 PM)97% (May 17, 2:53 AM)30.11 "Hg (May 17, 2:53 AM)
Low35 °F (May 14, 4:53 AM)31% (May 17, 5:53 PM)29.71 "Hg (May 15, 2:53 PM)
Average58 °F68%29.93 "Hg
* Reported May 13 9:53 PM — May 28 9:53 PM, Pullman, Weather by CustomWeather, © 2015

Note: Actual official high and low records may vary slightly from our data, if they occured in-between our weather recording intervals... More about our weather records

Advertising

Pullman weather history for previous 24 hours

 ConditionsComfort  
Time TempWeatherWind HumidityBarometerVisibility
9:53 PM
Thu, May 28
61 °FClear.8 mph72%30.08 "Hg10 mi
8:53 PM62 °FSunny.9 mph70%30.07 "Hg10 mi
7:53 PM69 °FSunny.7 mph57%30.06 "Hg10 mi
6:53 PM74 °FSunny.5 mph43%30.05 "Hg10 mi
5:53 PM75 °FSunny.5 mph39%30.05 "Hg10 mi
4:53 PM76 °FSunny.6 mph39%30.05 "Hg10 mi
3:53 PM74 °FSunny.3 mph41%30.06 "Hg10 mi
2:53 PM75 °FPassing clouds.No wind39%30.07 "Hg10 mi
1:53 PM73 °FSunny.No wind40%30.09 "Hg10 mi
12:53 PM71 °FPassing clouds.3 mph49%30.10 "Hg10 mi
11:53 AM71 °FSunny.6 mph49%30.11 "Hg10 mi
10:53 AM66 °FPartly sunny.8 mph63%30.11 "Hg10 mi
9:53 AM64 °FScattered clouds.7 mph65%30.11 "Hg10 mi
8:53 AM60 °FSunny.9 mph72%30.11 "Hg10 mi
7:53 AM57 °FSunny.6 mph78%30.10 "Hg10 mi
6:53 AM56 °FSunny.9 mph77%30.09 "Hg10 mi
5:53 AM52 °FClear.5 mph83%30.07 "Hg10 mi
4:53 AM51 °FClear.6 mph86%30.06 "Hg10 mi
3:53 AM52 °FClear.6 mph86%30.05 "Hg10 mi
2:53 AM52 °FClear.6 mph83%30.03 "Hg10 mi
1:53 AM53 °FClear.3 mph80%30.03 "Hg10 mi
12:53 AM52 °FClear.No wind83%30.03 "Hg10 mi
11:53 PM
Wed, May 27
54 °FClear.3 mph83%30.04 "Hg10 mi
Weather by CustomWeather, © 2015

See weather overviewHow to use our weather pages